Home > Weather > Helsingborg > Past weeks

Flag for Sweden Past Weather in Helsingborg, Sweden — Yesterday and Last 2 Weeks

Now
61 °F

Partly cloudy.


Feels Like: 61 °F
Forecast: 56 / 65 °F
Wind: 10 mph from Southwest

Location: Ljungbyhed

Current Time: Jun 28, 2016 at 12:20:30 AM

Latest Report: Jun 27, 2016 at 11:50 PM


Visibility: N/A

Pressure: 29.92 "Hg

Humidity: 94%

Dew Point: 59 °F

Location of HelsingborgLocation

Past Weather in Helsingborg — Graph

°F

Helsingborg Temperature Yesterday

Maximum temperature yesterday: 70 °F (at 2:20 PM)
Minimum temperature yesterday: 48 °F (at 4:50 AM)
Average temperature yesterday: 62 °F

High & Low Weather Summary for the Past Weeks

 TemperatureHumidityPressure
High84 °F (Jun 25, 5:20 PM)100% (Jun 13, 2:20 AM)30.24 "Hg (Jun 13, 2:20 AM)
Low41 °F (Jun 13, 3:20 AM)49% (Jun 19, 5:20 PM)29.53 "Hg (Jun 14, 6:20 PM)
Average62 °F79%29.87 "Hg
* Reported Jun 12 11:20 PM — Jun 27 11:20 PM, Helsingborg, Weather by CustomWeather, © 2016

Note: Actual official high and low records may vary slightly from our data, if they occured in-between our weather recording intervals... More about our weather records

Advertising

Helsingborg Weather History for the Previous 24 Hours

Scroll right to see more
 ConditionsComfort  
Time TempWeatherWind HumidityBarometerVisibility
11:20 PM
Mon, Jun 27
61 °FLight rain. Partly cloudy.7 mph88%29.92 "HgN/A
10:50 PM61 °FBroken clouds.7 mph88%29.92 "HgN/A
10:20 PM59 °FBroken clouds.8 mph94%29.92 "HgN/A
9:50 PM63 °FLight rain. More clouds than sun.13 mph83%29.92 "Hg5 mi
9:20 PM64 °FBroken clouds.7 mph73%29.92 "HgN/A
8:50 PM66 °FBroken clouds.6 mph68%29.92 "HgN/A
8:20 PM66 °FPartly sunny.6 mph68%29.92 "HgN/A
7:50 PM66 °FScattered clouds.7 mph68%29.92 "HgN/A
7:20 PM66 °FBroken clouds.7 mph68%29.92 "HgN/A
6:50 PM68 °FPartly sunny.8 mph56%29.92 "HgN/A
6:20 PM68 °FPartly sunny.9 mph56%29.95 "HgN/A
5:50 PM66 °FPartly sunny.13 mph60%29.95 "HgN/A
5:20 PM68 °FBroken clouds.14 mph56%29.95 "HgN/A
4:50 PM68 °FBroken clouds.14 mph56%29.95 "HgN/A
4:20 PM70 °FPassing clouds.13 mph53%29.95 "HgN/A
3:50 PM70 °FPassing clouds.13 mph57%29.95 "HgN/A
3:20 PM70 °FScattered clouds.13 mph57%29.92 "HgN/A
2:50 PM70 °FScattered clouds.16 mph53%29.95 "HgN/A
2:20 PM70 °FBroken clouds.13 mph57%29.95 "HgN/A
1:50 PM68 °FScattered clouds.13 mph56%29.95 "HgN/A
1:20 PM66 °FScattered clouds.10 mph64%29.95 "HgN/A
12:50 PM68 °FPassing clouds.13 mph56%29.95 "HgN/A
12:20 PM68 °FScattered clouds.12 mph60%29.95 "HgN/A
11:50 AM66 °FScattered clouds.12 mph60%29.95 "HgN/A
11:20 AM66 °FScattered clouds.13 mph60%29.95 "HgN/A
10:50 AM64 °FPartly sunny.10 mph68%29.95 "HgN/A
10:20 AM63 °FPartly sunny.9 mph77%29.95 "HgN/A
9:50 AM63 °FBroken clouds.12 mph73%29.95 "HgN/A
9:20 AM64 °FBroken clouds.10 mph64%29.95 "HgN/A
8:50 AM64 °FPassing clouds.8 mph73%29.95 "HgN/A
8:20 AM61 °FPassing clouds.6 mph77%29.98 "HgN/A
7:50 AM63 °FPassing clouds.9 mph73%29.95 "HgN/A
7:20 AM61 °FCool.6 mph77%29.95 "HgN/A
6:50 AM59 °FCool.5 mph82%29.95 "HgN/A
6:20 AM55 °FCool.2 mph88%29.95 "HgN/A
5:50 AM54 °FCool.5 mph94%29.95 "HgN/A
5:20 AM50 °FCool.3 mph94%29.95 "HgN/A
4:50 AM48 °FCool.5 mph100%29.95 "HgN/A
4:20 AM50 °FCool.3 mph94%29.95 "HgN/A
3:50 AM50 °FCool.5 mph94%29.95 "HgN/A
3:20 AM50 °FCool.5 mph100%29.95 "HgN/A
2:50 AM52 °FCool.6 mph94%29.95 "HgN/A
2:20 AM54 °FCool.6 mph88%29.95 "HgN/A
1:50 AM55 °FCool.7 mph88%29.95 "HgN/A
1:20 AM57 °FCool.6 mph82%29.95 "HgN/A
12:50 AM57 °FCool.6 mph82%29.95 "HgN/A
12:20 AM57 °FCool.6 mph82%29.95 "HgN/A
Weather by CustomWeather, © 2016

See weather overviewHow to use our weather pages